Weather History for Atlantic City, NJ

Change the Weather History Date:

Saturday, January 25, 2014

  Actual Average Record
Temperature  
Mean Temperature 24 °F 33 °F  
Max Temperature 30 °F 41 °F 72 °F (1967)
Min Temperature 18 °F 25 °F 4 °F (1961)
Degree Days  
Heating Degree Days 41 32  
Month to date heating degree days 894 798  
Since 1 July heating degree days 2694 2567  
Cooling Degree Days 0 0  
Month to date cooling degree days 0 0  
Year to date cooling degree days 0 0  
Moisture  
Dew Point 14 °F    
Average Humidity 64    
Maximum Humidity 88    
Minimum Humidity 39    
Precipitation  
Precipitation 0.05 in 0.10 in 2.68 in (1905)
Month to date precipitation 2.82 2.62  
Year to date precipitation 2.82 2.62  
Snow  
Snow 0.40 in 0.20 in 2.00 in (1987)
Month to date snowfall 10.9 3.3  
Since 1 July snowfall 14.2 7.2  
Snow Depth 2.00 in    
Sea Level Pressure  
Sea Level Pressure 29.68 in    
Wind  
Wind Speed 14 mph (SW)    
Max Wind Speed 26 mph    
Max Gust Speed 35 mph    
Visibility 8 miles    
Events Fog , Snow    
T = Trace of Precipitation, MM = Missing Value Source: NWS Daily Summary

Daily Weather History Graph

Daily Weather History Graph

Search for Another Location

Airport:

Trip Planner

Search our weather history database for the weather conditions in past years. The results will help you decide how hot, cold, wet, or windy it might be!

Date:

Astronomy

Jan. 25, 2014 Rise Set
Actual Time 7:11 AM EST 5:10 PM EST
Civil Twilight 6:42 AM EST 5:39 PM EST
Nautical Twilight 6:09 AM EST 6:11 PM EST
Astronomical Twilight 5:38 AM EST 6:43 PM EST
Moon 1:40 AM EST (1/25) 12:08 PM EST (1/25)
Length of Visible Light 10h 56m
Length of Day
9h 59m
Waning Crescent, 34% of the Moon is Illuminated
Jan 25
Waning Crescent
Jan 30
New
Feb 6
First Quarter
Feb 14
Full
Feb 22
Last Quarter

Hourly Weather History & Observations

Time (EST) Temp. Windchill Dew Point Humidity Pressure Visibility Wind Dir Wind Speed Gust Speed Precip Events Conditions
12:54 AM 19.0 °F 6.8 °F 3.0 °F 50% 30.11 in 10.0 mi SSW 11.5 mph - N/A   Clear
1:54 AM 19.9 °F 6.2 °F 3.0 °F 48% 30.07 in 10.0 mi SSW 15.0 mph 25.3 mph N/A   Clear
2:54 AM 19.9 °F 7.3 °F 3.9 °F 50% 30.05 in 10.0 mi SSW 12.7 mph - N/A   Clear
3:54 AM 21.0 °F 8.1 °F 5.0 °F 50% 30.01 in 10.0 mi SSW 13.8 mph 19.6 mph N/A   Clear
4:54 AM 21.0 °F 7.6 °F 6.1 °F 53% 29.94 in 10.0 mi SSW 15.0 mph 23.0 mph N/A   Clear
5:54 AM 21.9 °F 8.7 °F 8.1 °F 55% 29.92 in 10.0 mi South 15.0 mph - N/A   Clear
6:54 AM 23.0 °F 10.6 °F 10.0 °F 58% 29.88 in 10.0 mi SSW 13.8 mph 20.7 mph N/A   Clear
7:54 AM 24.1 °F 9.8 °F 10.0 °F 55% 29.84 in 10.0 mi South 19.6 mph 31.1 mph N/A   Clear
8:54 AM 26.1 °F 13.1 °F 10.0 °F 51% 29.81 in 10.0 mi SSW 17.3 mph 28.8 mph N/A   Clear
9:54 AM 27.0 °F 14.3 °F 10.0 °F 49% 29.78 in 10.0 mi SSW 17.3 mph 29.9 mph N/A   Clear
10:54 AM 28.0 °F 14.6 °F 10.9 °F 49% 29.73 in 10.0 mi SSW 20.7 mph 28.8 mph N/A   Clear
11:54 AM 28.9 °F 16.1 °F 10.0 °F 45% 29.67 in 10.0 mi SSW 19.6 mph 31.1 mph N/A   Partly Cloudy
12:54 PM 30.0 °F 18.3 °F 9.0 °F 41% 29.62 in 10.0 mi SW 17.3 mph 26.5 mph N/A   Overcast
1:54 PM 28.9 °F 16.1 °F 10.9 °F 47% 29.55 in 7.0 mi SW 19.6 mph 28.8 mph 0.00 in Snow Light Snow
2:07 PM 27.0 °F 14.3 °F 16.0 °F 63% 29.53 in 1.8 mi SSW 17.3 mph 27.6 mph 0.00 in Snow Light Snow
2:16 PM 27.0 °F 16.1 °F 17.1 °F 66% 29.53 in 1.0 mi SSW 12.7 mph 25.3 mph 0.00 in Snow Light Snow
2:54 PM 25.0 °F 13.6 °F 21.9 °F 88% 29.54 in 0.2 mi SW 12.7 mph - 0.02 in Fog , Snow Snow
3:11 PM 25.0 °F 15.5 °F 23.0 °F 92% 29.52 in 0.5 mi SW 9.2 mph - 0.01 in Fog , Snow Snow
3:30 PM 26.1 °F 16.2 °F 23.0 °F 88% 29.52 in 1.0 mi SW 10.4 mph - 0.02 in Snow Light Snow
3:54 PM 26.1 °F 12.3 °F 21.9 °F 84% 29.52 in 1.0 mi SW 19.6 mph 27.6 mph 0.03 in Snow Light Snow
4:06 PM 26.1 °F 15.6 °F 21.9 °F 84% 29.51 in 2.0 mi SW 11.5 mph 21.9 mph 0.00 in Snow Light Snow
4:12 PM 26.1 °F 15.6 °F 21.9 °F 84% 29.51 in 3.0 mi SW 11.5 mph - 0.00 in Snow Light Snow
4:20 PM 26.1 °F 15.0 °F 21.9 °F 84% 29.51 in 2.5 mi SW 12.7 mph 19.6 mph 0.00 in Snow Light Snow
4:32 PM 26.1 °F 14.5 °F 21.9 °F 84% 29.51 in 5.0 mi SW 13.8 mph - 0.00 in Snow Light Snow
4:54 PM 26.1 °F 15.6 °F 21.9 °F 84% 29.51 in 9.0 mi SW 11.5 mph 21.9 mph 0.00 in   Overcast
5:54 PM 25.0 °F 17.1 °F 19.9 °F 81% 29.52 in 10.0 mi SW 6.9 mph - N/A   Clear
6:54 PM 25.0 °F 19.3 °F 19.9 °F 81% 29.51 in 10.0 mi SSW 4.6 mph - N/A   Mostly Cloudy
7:54 PM 26.1 °F 17.6 °F 18.0 °F 71% 29.52 in 10.0 mi SW 8.1 mph - N/A   Overcast
8:54 PM 28.0 °F 18.6 °F 14.0 °F 56% 29.52 in 10.0 mi WSW 10.4 mph - N/A   Overcast
9:54 PM 27.0 °F 18.7 °F 12.9 °F 56% 29.52 in 10.0 mi SW 8.1 mph - N/A   Clear
10:54 PM 27.0 °F 17.3 °F 14.0 °F 58% 29.53 in 10.0 mi WSW 10.4 mph - N/A   Clear
11:54 PM 27.0 °F 15.6 °F 16.0 °F 63% 29.55 in 10.0 mi WSW 13.8 mph 19.6 mph N/A   Partly Cloudy